| time (UTC) | temp C | wind direction | speed KPH | gust KPH | rain 1hr cm | rain 24hr cm | rain mn cm | humidity % | barometer mb |
| 20260507214236 | 13 | 225 | 0.0 | 0.0 | 0.00 | 0.00 | 0.00 | 80 | 1014.7 |
| 20260507213637 | 13 | 90 | 0.0 | 0.0 | 0.00 | 0.00 | 0.00 | 76 | 1014.7 |
| 20260507213037 | 14 | 45 | 0.0 | 0.0 | 0.00 | 0.00 | 0.00 | 74 | 1014.7 |
| 20260507212437 | 13 | 315 | 0.0 | 1.6 | 0.00 | 0.00 | 0.00 | 74 | 1014.5 |
| 20260507211837 | 13 | 0 | 0.0 | 0.0 | 0.00 | 0.00 | 0.00 | 77 | 1014.5 |
| 20260507211237 | 13 | 225 | 0.0 | 0.0 | 0.00 | 0.00 | 0.00 | 80 | 1014.5 |
| 20260507210637 | 13 | 180 | 0.0 | 1.6 | 0.00 | 0.00 | 0.00 | 83 | 1014.6 |
| 20260507210037 | 12 | 45 | 0.0 | 0.0 | 0.00 | 0.00 | 0.00 | 84 | 1014.7 |
| 20260507205436 | 12 | 45 | 0.0 | 0.0 | 0.00 | 0.00 | 0.00 | 84 | 1014.6 |
| 20260507204836 | 12 | 180 | 0.0 | 1.6 | 0.00 | 0.00 | 0.00 | 85 | 1014.6 |
| 20260507204236 | 12 | 225 | 0.0 | 1.6 | 0.00 | 0.00 | 0.00 | 84 | 1014.6 |
| 20260507203637 | 12 | 180 | 0.0 | 0.0 | 0.00 | 0.00 | 0.00 | 85 | 1014.5 |
| 20260507203037 | 12 | 315 | 0.0 | 0.0 | 0.00 | 0.00 | 0.00 | 85 | 1014.5 |
| 20260507202436 | 12 | 180 | 0.0 | 1.6 | 0.00 | 0.00 | 0.00 | 84 | 1014.4 |
| 20260507201836 | 13 | 225 | 0.0 | 0.0 | 0.00 | 0.00 | 0.00 | 83 | 1014.2 |
| 20260507201236 | 12 | 180 | 0.0 | 0.0 | 0.00 | 0.00 | 0.00 | 82 | 1014.3 |
| 20260507200637 | 13 | 135 | 0.0 | 0.0 | 0.00 | 0.00 | 0.00 | 82 | 1014.2 |
| 20260507200037 | 13 | 225 | 0.0 | 0.0 | 0.00 | 0.00 | 0.00 | 81 | 1014.1 |
| 20260507195436 | 13 | 225 | 0.0 | 1.6 | 0.00 | 0.00 | 0.00 | 79 | 1014.0 |
| 20260507194837 | 14 | 90 | 0.0 | 0.0 | 0.00 | 0.00 | 0.00 | 78 | 1013.9 |
| 20260507194237 | 14 | 180 | 0.0 | 1.6 | 0.00 | 0.00 | 0.00 | 78 | 1013.9 |
| 20260507193637 | 14 | 180 | 0.0 | 0.0 | 0.00 | 0.00 | 0.00 | 74 | 1013.8 |
| 20260507193036 | 13 | 315 | 0.0 | 0.0 | 0.00 | 0.00 | 0.00 | 73 | 1013.8 |
| 20260507192436 | 14 | 0 | 0.0 | 0.0 | 0.00 | 0.00 | 0.00 | 74 | 1013.8 |
| 20260507191837 | 15 | 180 | 0.0 | 1.6 | 0.00 | 0.00 | 0.00 | 75 | 1013.7 |
| 20260507191237 | 15 | 180 | 0.0 | 0.0 | 0.00 | 0.00 | 0.00 | 73 | 1013.6 |
| 20260507190636 | 14 | 0 | 0.0 | 0.0 | 0.00 | 0.00 | 0.00 | 72 | 1013.5 |
| 20260507190037 | 14 | 180 | 0.0 | 0.0 | 0.00 | 0.00 | 0.00 | 73 | 1013.5 |
| 20260507185437 | 13 | 315 | 0.0 | 0.0 | 0.00 | 0.00 | 0.00 | 75 | 1013.4 |
| 20260507184837 | 15 | 135 | 0.0 | 0.0 | 0.00 | 0.00 | 0.00 | 77 | 1013.4 |
| 20260507184237 | 14 | 180 | 0.0 | 1.6 | 0.00 | 0.00 | 0.00 | 77 | 1013.3 |
| 20260507183636 | 14 | 90 | 0.0 | 0.0 | 0.00 | 0.00 | 0.00 | 76 | 1013.2 |
| 20260507183036 | 14 | 90 | 0.0 | 0.0 | 0.00 | 0.00 | 0.00 | 78 | 1013.2 |
| 20260507182437 | 14 | 135 | 0.0 | 0.0 | 0.00 | 0.00 | 0.00 | 79 | 1013.1 |
| 20260507181837 | 15 | 135 | 0.0 | 0.0 | 0.00 | 0.00 | 0.00 | 79 | 1013.1 |
| 20260507181237 | 15 | 180 | 0.0 | 0.0 | 0.00 | 0.00 | 0.00 | 79 | 1013.1 |
| 20260507180637 | 15 | 225 | 0.0 | 0.0 | 0.00 | 0.00 | 0.00 | 78 | 1013.0 |
| 20260507180037 | 16 | 225 | 0.0 | 0.0 | 0.00 | 0.00 | 0.00 | 78 | 1013.1 |
| 20260507175437 | 16 | 135 | 0.0 | 0.0 | 0.00 | 0.00 | 0.00 | 77 | 1013.0 |
| 20260507174837 | 16 | 180 | 0.0 | 0.0 | 0.00 | 0.00 | 0.00 | 74 | 1013.0 |
| 20260507174237 | 16 | 180 | 0.0 | 0.0 | 0.00 | 0.00 | 0.00 | 73 | 1012.9 |
| 20260507173637 | 17 | 180 | 0.0 | 0.0 | 0.00 | 0.00 | 0.00 | 71 | 1012.9 |
| 20260507173037 | 17 | 45 | 0.0 | 0.0 | 0.00 | 0.00 | 0.00 | 66 | 1012.9 |
| 20260507172437 | 17 | 0 | 0.0 | 0.0 | 0.00 | 0.00 | 0.00 | 62 | 1012.9 |
| 20260507171837 | 17 | 270 | 0.0 | 3.2 | 0.00 | 0.00 | 0.00 | 61 | 1012.9 |
| 20260507171237 | 18 | 0 | 0.0 | 0.0 | 0.00 | 0.00 | 0.00 | 61 | 1012.9 |
| 20260507170637 | 18 | 0 | 1.6 | 3.2 | 0.00 | 0.00 | 0.00 | 60 | 1012.8 |
| 20260507170037 | 18 | 45 | 1.6 | 1.6 | 0.00 | 0.00 | 0.00 | 59 | 1012.9 |
| 20260507165437 | 18 | 45 | 0.0 | 0.0 | 0.00 | 0.00 | 0.00 | 57 | 1012.8 |
| 20260507164837 | 18 | 45 | 1.6 | 1.6 | 0.00 | 0.00 | 0.00 | 58 | 1012.9 |
| 20260507164237 | 18 | 225 | 0.0 | 0.0 | 0.00 | 0.00 | 0.00 | 58 | 1012.8 |
| 20260507163636 | 17 | 315 | 0.0 | 1.6 | 0.00 | 0.00 | 0.00 | 57 | 1012.9 |
| 20260507163037 | 18 | 135 | 0.0 | 1.6 | 0.00 | 0.00 | 0.00 | 60 | 1012.9 |
| 20260507162437 | 18 | 90 | 0.0 | 0.0 | 0.00 | 0.00 | 0.00 | 59 | 1013.0 |
| 20260507161837 | 19 | 0 | 1.6 | 1.6 | 0.00 | 0.00 | 0.00 | 56 | 1013.0 |
| 20260507161237 | 18 | 0 | 0.0 | 1.6 | 0.00 | 0.00 | 0.00 | 57 | 1012.9 |
| 20260507160636 | 18 | 90 | 3.2 | 6.4 | 0.00 | 0.00 | 0.00 | 58 | 1013.0 |
| 20260507160036 | 18 | 45 | 1.6 | 3.2 | 0.00 | 0.00 | 0.00 | 55 | 1012.9 |
| 20260507155437 | 18 | 45 | 1.6 | 3.2 | 0.00 | 0.00 | 0.00 | 57 | 1013.0 |
| 20260507154837 | 18 | 90 | 0.0 | 0.0 | 0.00 | 0.00 | 0.00 | 56 | 1013.0 |
| 20260507154237 | 18 | 90 | 1.6 | 1.6 | 0.00 | 0.00 | 0.00 | 57 | 1012.9 |
| 20260507153636 | 19 | 90 | 0.0 | 1.6 | 0.00 | 0.00 | 0.00 | 55 | 1012.9 |
| 20260507153338 | 19 | 0 | 1.6 | 3.2 | 0.00 | 0.00 | 0.00 | 57 | 1013.0 |
| 20260507153036 | 19 | 0 | 1.6 | 3.2 | 0.00 | 0.00 | 0.00 | 57 | 1013.0 |
| 20260507152437 | 18 | 45 | 0.0 | 1.6 | 0.00 | 0.00 | 0.00 | 57 | 1012.9 |
| 20260507151837 | 18 | 135 | 0.0 | 1.6 | 0.00 | 0.00 | 0.00 | 56 | 1013.0 |
| 20260507151237 | 18 | 315 | 0.0 | 1.6 | 0.00 | 0.00 | 0.00 | 55 | 1013.1 |
| 20260507150636 | 18 | 135 | 1.6 | 3.2 | 0.00 | 0.00 | 0.00 | 57 | 1013.1 |
| 20260507150037 | 18 | 180 | 0.0 | 1.6 | 0.00 | 0.00 | 0.00 | 57 | 1013.1 |
| 20260507145437 | 18 | 315 | 0.0 | 3.2 | 0.00 | 0.00 | 0.00 | 56 | 1013.2 |
| 20260507144837 | 17 | 180 | 0.0 | 0.0 | 0.00 | 0.00 | 0.00 | 57 | 1013.2 |
| 20260507144237 | 18 | 135 | 0.0 | 0.0 | 0.00 | 0.00 | 0.00 | 59 | 1013.1 |
| 20260507143637 | 18 | 180 | 0.0 | 1.6 | 0.00 | 0.00 | 0.00 | 54 | 1013.1 |
| 20260507143036 | 18 | 270 | 0.0 | 0.0 | 0.00 | 0.00 | 0.00 | 58 | 1013.2 |
| 20260507142437 | 18 | 45 | 0.0 | 0.0 | 0.00 | 0.00 | 0.00 | 56 | 1013.3 |
| 20260507141837 | 18 | 180 | 3.2 | 4.8 | 0.00 | 0.00 | 0.00 | 49 | 1013.3 |
| 20260507141237 | 20 | 90 | 1.6 | 4.8 | 0.00 | 0.00 | 0.00 | 51 | 1013.3 |
| 20260507140637 | 20 | 0 | 3.2 | 4.8 | 0.00 | 0.00 | 0.00 | 51 | 1013.3 |
| 20260507140036 | 20 | 0 | 1.6 | 3.2 | 0.00 | 0.00 | 0.00 | 52 | 1013.3 |
| 20260507135436 | 19 | 315 | 1.6 | 3.2 | 0.00 | 0.00 | 0.00 | 53 | 1013.3 |
| 20260507134837 | 19 | 225 | 0.0 | 1.6 | 0.00 | 0.00 | 0.00 | 49 | 1013.5 |
| 20260507134237 | 20 | 0 | 0.0 | 1.6 | 0.00 | 0.00 | 0.00 | 49 | 1013.5 |
| 20260507133637 | 20 | 315 | 3.2 | 4.8 | 0.00 | 0.00 | 0.00 | 48 | 1013.6 |
| 20260507133036 | 20 | 45 | 1.6 | 1.6 | 0.00 | 0.00 | 0.00 | 47 | 1013.7 |
| 20260507132437 | 19 | 45 | 3.2 | 6.4 | 0.00 | 0.00 | 0.00 | 50 | 1013.6 |
| 20260507131837 | 21 | 270 | 1.6 | 3.2 | 0.00 | 0.00 | 0.00 | 46 | 1013.8 |
| 20260507131237 | 21 | 315 | 1.6 | 1.6 | 0.00 | 0.00 | 0.00 | 51 | 1013.9 |
| 20260507130037 | 20 | 45 | 1.6 | 3.2 | 0.00 | 0.00 | 0.00 | 53 | 1013.9 |
| 20260507125437 | 21 | 0 | 1.6 | 3.2 | 0.00 | 0.00 | 0.00 | 50 | 1014.0 |
| 20260507124837 | 20 | 315 | 1.6 | 1.6 | 0.00 | 0.00 | 0.00 | 55 | 1014.0 |
| 20260507124416 | 21 | 270 | 1.6 | 3.2 | 0.00 | 0.00 | 0.00 | 54 | 1014.0 |
| 20260507124237 | 21 | 270 | 1.6 | 3.2 | 0.00 | 0.00 | 0.00 | 54 | 1014.0 |
| 20260507123636 | 20 | 225 | 0.0 | 3.2 | 0.00 | 0.00 | 0.00 | 52 | 1014.1 |
| 20260507123036 | 20 | 90 | 3.2 | 6.4 | 0.00 | 0.00 | 0.00 | 49 | 1014.1 |
| 20260507122438 | 18 | 270 | 3.2 | 3.2 | 0.00 | 0.00 | 0.00 | 55 | 1014.1 |
| 20260507121837 | 18 | 90 | 1.6 | 3.2 | 0.00 | 0.00 | 0.00 | 55 | 1014.1 |
| 20260507121237 | 20 | 0 | 0.0 | 1.6 | 0.00 | 0.00 | 0.00 | 55 | 1014.1 |
| 20260507120636 | 18 | 0 | 3.2 | 8.0 | 0.00 | 0.00 | 0.00 | 53 | 1014.2 |
| 20260507120037 | 19 | 315 | 3.2 | 4.8 | 0.00 | 0.00 | 0.00 | 54 | 1014.2 |
| 20260507115437 | 19 | 0 | 1.6 | 3.2 | 0.00 | 0.00 | 0.00 | 61 | 1014.3 |
| 20260507114837 | 19 | 315 | 1.6 | 3.2 | 0.00 | 0.00 | 0.00 | 55 | 1014.3 |
| 20260507114237 | 19 | 90 | 0.0 | 3.2 | 0.00 | 0.00 | 0.00 | 54 | 1014.3 |
| 20260507113636 | 18 | 180 | 0.0 | 1.6 | 0.00 | 0.00 | 0.00 | 53 | 1014.4 |
| 20260507113038 | 18 | 315 | 3.2 | 3.2 | 0.00 | 0.00 | 0.00 | 56 | 1014.5 |
| 20260507112437 | 19 | 45 | 3.2 | 9.7 | 0.00 | 0.00 | 0.00 | 60 | 1014.4 |
| 20260507111837 | 18 | 45 | 3.2 | 3.2 | 0.00 | 0.00 | 0.00 | 55 | 1014.5 |
| 20260507111236 | 18 | 45 | 1.6 | 3.2 | 0.00 | 0.00 | 0.00 | 60 | 1014.4 |
| 20260507110636 | 17 | 270 | 1.6 | 3.2 | 0.00 | 0.00 | 0.00 | 57 | 1014.6 |
| 20260507110037 | 18 | 0 | 3.2 | 4.8 | 0.00 | 0.00 | 0.00 | 61 | 1014.6 |
| 20260507104837 | 18 | 0 | 3.2 | 8.0 | 0.00 | 0.00 | 0.00 | 56 | 1014.8 |
| 20260507104236 | 17 | 45 | 3.2 | 4.8 | 0.00 | 0.00 | 0.00 | 58 | 1014.8 |
| 20260507103637 | 17 | 0 | 3.2 | 6.4 | 0.00 | 0.00 | 0.00 | 61 | 1014.7 |
| 20260507103037 | 17 | 315 | 3.2 | 4.8 | 0.00 | 0.00 | 0.00 | 64 | 1014.7 |
| 20260507102437 | 17 | 0 | 3.2 | 6.4 | 0.00 | 0.00 | 0.00 | 59 | 1014.7 |
| 20260507101837 | 17 | 180 | 1.6 | 3.2 | 0.00 | 0.00 | 0.00 | 58 | 1014.8 |
| 20260507101236 | 17 | 0 | 3.2 | 4.8 | 0.00 | 0.00 | 0.00 | 65 | 1015.0 |
| 20260507100637 | 17 | 315 | 3.2 | 6.4 | 0.00 | 0.00 | 0.00 | 61 | 1014.8 |
| 20260507100037 | 17 | 315 | 3.2 | 6.4 | 0.00 | 0.00 | 0.00 | 60 | 1014.8 |
| 20260507095437 | 17 | 315 | 4.8 | 6.4 | 0.00 | 0.00 | 0.00 | 63 | 1014.9 |
| 20260507094837 | 17 | 315 | 0.0 | 3.2 | 0.00 | 0.00 | 0.00 | 63 | 1014.9 |
| 20260507094236 | 18 | 135 | 3.2 | 3.2 | 0.00 | 0.00 | 0.00 | 63 | 1014.9 |
| 20260507093639 | 17 | 45 | 3.2 | 8.0 | 0.00 | 0.00 | 0.00 | 67 | 1015.0 |
| 20260507093637 | 17 | 45 | 3.2 | 8.0 | 0.00 | 0.00 | 0.00 | 67 | 1015.0 |
| 20260507093036 | 17 | 0 | 0.0 | 3.2 | 0.00 | 0.00 | 0.00 | 62 | 1014.9 |
| 20260507092437 | 17 | 0 | 3.2 | 8.0 | 0.00 | 0.00 | 0.00 | 66 | 1014.9 |
| 20260507091837 | 16 | 90 | 0.0 | 1.6 | 0.00 | 0.00 | 0.00 | 65 | 1014.7 |
| 20260507091237 | 17 | 90 | 1.6 | 1.6 | 0.00 | 0.00 | 0.00 | 68 | 1014.8 |
| 20260507090636 | 16 | 0 | 1.6 | 3.2 | 0.00 | 0.00 | 0.00 | 67 | 1014.9 |
| 20260507090037 | 16 | 135 | 1.6 | 3.2 | 0.00 | 0.00 | 0.00 | 67 | 1014.9 |
| 20260507085437 | 16 | 315 | 3.2 | 4.8 | 0.00 | 0.00 | 0.00 | 64 | 1014.8 |
| 20260507084836 | 17 | 315 | 1.6 | 3.2 | 0.00 | 0.00 | 0.00 | 63 | 1014.9 |
| 20260507084236 | 19 | 90 | 0.0 | 1.6 | 0.00 | 0.00 | 0.00 | 56 | 1014.8 |
| 20260507083637 | 17 | 180 | 0.0 | 1.6 | 0.00 | 0.00 | 0.00 | 69 | 1014.8 |
| 20260507083037 | 16 | 180 | 1.6 | 3.2 | 0.00 | 0.00 | 0.00 | 71 | 1014.8 |
| 20260507082437 | 15 | 315 | 1.6 | 3.2 | 0.00 | 0.00 | 0.00 | 68 | 1014.9 |
| 20260507081836 | 17 | 45 | 3.2 | 6.4 | 0.00 | 0.00 | 0.00 | 68 | 1015.0 |
| 20260507081236 | 16 | 135 | 1.6 | 1.6 | 0.00 | 0.00 | 0.00 | 70 | 1015.1 |
| 20260507080637 | 15 | 45 | 0.0 | 0.0 | 0.00 | 0.00 | 0.00 | 77 | 1015.0 |
| 20260507080037 | 15 | 0 | 3.2 | 4.8 | 0.00 | 0.00 | 0.00 | 76 | 1015.0 |
| 20260507075437 | 15 | 45 | 3.2 | 8.0 | 0.00 | 0.00 | 0.00 | 73 | 1015.1 |
| 20260507074836 | 16 | 315 | 3.2 | 6.4 | 0.00 | 0.00 | 0.00 | 73 | 1015.0 |
| 20260507074236 | 15 | 315 | 3.2 | 3.2 | 0.00 | 0.00 | 0.00 | 72 | 1015.1 |
| 20260507073637 | 15 | 180 | 0.0 | 0.0 | 0.00 | 0.00 | 0.00 | 74 | 1015.1 |
| 20260507073037 | 13 | 135 | 1.6 | 4.8 | 0.00 | 0.00 | 0.00 | 82 | 1015.1 |
| 20260507072437 | 13 | 180 | 1.6 | 4.8 | 0.00 | 0.00 | 0.00 | 82 | 1015.1 |
| 20260507071836 | 13 | 45 | 1.6 | 3.2 | 0.00 | 0.00 | 0.00 | 83 | 1015.1 |
| 20260507071236 | 12 | 90 | 1.6 | 3.2 | 0.00 | 0.00 | 0.00 | 85 | 1015.1 |
| 20260507070637 | 11 | 0 | 0.0 | 0.0 | 0.00 | 0.00 | 0.00 | 90 | 1015.1 |
| 20260507070037 | 11 | 0 | 0.0 | 0.0 | 0.00 | 0.00 | 0.00 | 92 | 1015.1 |
| 20260507065437 | 11 | 180 | 0.0 | 0.0 | 0.00 | 0.00 | 0.00 | 92 | 1015.1 |
| 20260507064837 | 10 | 180 | 0.0 | 0.0 | 0.00 | 0.00 | 0.00 | 94 | 1015.1 |
| 20260507064236 | 11 | 135 | 0.0 | 0.0 | 0.00 | 0.00 | 0.00 | 93 | 1015.1 |
| 20260507063637 | 10 | 225 | 0.0 | 0.0 | 0.00 | 0.00 | 0.00 | 93 | 1015.2 |
| 20260507063037 | 10 | 45 | 0.0 | 0.0 | 0.00 | 0.00 | 0.00 | 94 | 1015.2 |
| 20260507062437 | 11 | 45 | 0.0 | 0.0 | 0.00 | 0.00 | 0.00 | 95 | 1015.2 |
| 20260507061837 | 10 | 135 | 0.0 | 0.0 | 0.00 | 0.00 | 0.00 | 96 | 1015.1 |
| 20260507061236 | 11 | 180 | 0.0 | 1.6 | 0.00 | 0.00 | 0.00 | 96 | 1015.1 |
| 20260507060637 | 10 | 135 | 0.0 | 0.0 | 0.00 | 0.00 | 0.00 | 96 | 1015.1 |
| 20260507060037 | 9 | 135 | 0.0 | 0.0 | 0.00 | 0.00 | 0.00 | 96 | 1015.1 |
| 20260507055437 | 9 | 135 | 0.0 | 0.0 | 0.00 | 0.00 | 0.56 | 96 | 1015.1 |
| 20260507054837 | 9 | 180 | 0.0 | 0.0 | 0.00 | 0.00 | 0.56 | 96 | 1015.1 |
| 20260507054236 | 9 | 180 | 0.0 | 0.0 | 0.00 | 0.00 | 0.56 | 96 | 1015.1 |
| 20260507053637 | 9 | 225 | 0.0 | 0.0 | 0.00 | 0.00 | 0.56 | 96 | 1015.0 |
| 20260507053037 | 9 | 180 | 0.0 | 0.0 | 0.00 | 0.00 | 0.56 | 96 | 1015.0 |
| 20260507052437 | 10 | 45 | 0.0 | 0.0 | 0.00 | 0.00 | 0.56 | 97 | 1014.9 |
| 20260507051837 | 10 | 135 | 0.0 | 0.0 | 0.00 | 0.00 | 0.56 | 96 | 1014.8 |
| 20260507051236 | 9 | 90 | 0.0 | 0.0 | 0.00 | 0.00 | 0.56 | 97 | 1014.8 |
| 20260507050637 | 9 | 180 | 0.0 | 0.0 | 0.00 | 0.00 | 0.56 | 96 | 1014.7 |
| 20260507050037 | 8 | 45 | 0.0 | 0.0 | 0.00 | 0.00 | 0.56 | 96 | 1014.6 |
| 20260507045437 | 8 | 90 | 0.0 | 0.0 | 0.00 | 0.00 | 0.56 | 97 | 1014.7 |
| 20260507044837 | 8 | 180 | 0.0 | 0.0 | 0.00 | 0.00 | 0.56 | 96 | 1014.6 |
| 20260507044237 | 8 | 90 | 0.0 | 0.0 | 0.00 | 0.00 | 0.56 | 96 | 1014.6 |
| 20260507043637 | 9 | 135 | 0.0 | 0.0 | 0.00 | 0.00 | 0.56 | 97 | 1014.5 |
| 20260507043037 | 8 | 0 | 0.0 | 1.6 | 0.00 | 0.00 | 0.56 | 97 | 1014.5 |
| 20260507042437 | 8 | 45 | 0.0 | 0.0 | 0.00 | 0.00 | 0.56 | 96 | 1014.4 |
| 20260507041837 | 8 | 135 | 0.0 | 0.0 | 0.00 | 0.00 | 0.56 | 96 | 1014.3 |
| 20260507041237 | 8 | 45 | 0.0 | 0.0 | 0.00 | 0.00 | 0.56 | 96 | 1014.3 |
| 20260507040636 | 8 | 225 | 0.0 | 0.0 | 0.00 | 0.00 | 0.56 | 96 | 1014.3 |
| 20260507040037 | 9 | 180 | 0.0 | 0.0 | 0.00 | 0.00 | 0.56 | 96 | 1014.3 |
| 20260507035437 | 9 | 135 | 0.0 | 0.0 | 0.00 | 0.00 | 0.56 | 96 | 1014.3 |
| 20260507034837 | 9 | 315 | 0.0 | 0.0 | 0.00 | 0.00 | 0.56 | 96 | 1014.3 |
| 20260507034237 | 9 | 135 | 0.0 | 0.0 | 0.00 | 0.00 | 0.56 | 96 | 1014.3 |
| 20260507033637 | 9 | 135 | 0.0 | 0.0 | 0.00 | 0.00 | 0.56 | 96 | 1014.4 |
| 20260507033037 | 9 | 0 | 0.0 | 0.0 | 0.00 | 0.00 | 0.56 | 96 | 1014.4 |
| 20260507032437 | 9 | 225 | 0.0 | 0.0 | 0.00 | 0.00 | 0.56 | 96 | 1014.3 |
| 20260507031837 | 9 | 0 | 0.0 | 0.0 | 0.00 | 0.00 | 0.56 | 96 | 1014.3 |
| 20260507031237 | 9 | 315 | 0.0 | 0.0 | 0.00 | 0.00 | 0.56 | 97 | 1014.3 |
| 20260507030637 | 9 | 180 | 0.0 | 0.0 | 0.00 | 0.00 | 0.56 | 96 | 1014.3 |
| 20260507030037 | 9 | 180 | 0.0 | 0.0 | 0.00 | 0.00 | 0.56 | 96 | 1014.4 |
| 20260507025437 | 9 | 0 | 0.0 | 0.0 | 0.00 | 0.00 | 0.56 | 97 | 1014.4 |
| 20260507024837 | 9 | 45 | 0.0 | 0.0 | 0.00 | 0.00 | 0.56 | 96 | 1014.5 |
| 20260507024236 | 9 | 45 | 0.0 | 0.0 | 0.00 | 0.00 | 0.56 | 97 | 1014.3 |
| 20260507023636 | 9 | 135 | 0.0 | 0.0 | 0.00 | 0.00 | 0.56 | 96 | 1014.4 |
| 20260507023037 | 9 | 180 | 0.0 | 0.0 | 0.00 | 0.00 | 0.56 | 97 | 1014.3 |
| 20260507022437 | 9 | 135 | 0.0 | 0.0 | 0.00 | 0.00 | 0.56 | 97 | 1014.3 |
| 20260507021837 | 9 | 135 | 0.0 | 0.0 | 0.00 | 0.00 | 0.56 | 96 | 1014.3 |
| 20260507021237 | 9 | 0 | 0.0 | 0.0 | 0.00 | 0.00 | 0.56 | 96 | 1014.3 |
| 20260507020637 | 9 | 135 | 0.0 | 1.6 | 0.00 | 0.00 | 0.56 | 97 | 1014.3 |
| 20260507020037 | 9 | 180 | 0.0 | 0.0 | 0.00 | 0.00 | 0.56 | 97 | 1014.2 |
| 20260507015437 | 9 | 180 | 0.0 | 0.0 | 0.00 | 0.00 | 0.56 | 96 | 1014.3 |
| 20260507014836 | 9 | 0 | 0.0 | 0.0 | 0.00 | 0.00 | 0.56 | 96 | 1014.1 |
| 20260507014237 | 9 | 45 | 0.0 | 0.0 | 0.00 | 0.00 | 0.56 | 97 | 1014.2 |
| 20260507013636 | 9 | 0 | 0.0 | 0.0 | 0.00 | 0.00 | 0.56 | 97 | 1014.2 |
| 20260507013037 | 8 | 45 | 0.0 | 0.0 | 0.00 | 0.00 | 0.56 | 97 | 1014.2 |
| 20260507012437 | 9 | 180 | 0.0 | 0.0 | 0.00 | 0.00 | 0.56 | 97 | 1014.2 |
| 20260507011837 | 9 | 180 | 0.0 | 0.0 | 0.00 | 0.00 | 0.56 | 96 | 1014.1 |
| 20260507011237 | 9 | 180 | 0.0 | 0.0 | 0.00 | 0.00 | 0.56 | 96 | 1014.1 |
| 20260507010637 | 8 | 225 | 0.0 | 0.0 | 0.00 | 0.00 | 0.56 | 97 | 1014.1 |
| 20260507010037 | 8 | 180 | 0.0 | 0.0 | 0.00 | 0.00 | 0.56 | 96 | 1014.0 |
| 20260507005437 | 9 | 0 | 0.0 | 0.0 | 0.00 | 0.00 | 0.56 | 96 | 1013.9 |
| 20260507004837 | 9 | 225 | 0.0 | 0.0 | 0.00 | 0.00 | 0.56 | 96 | 1014.0 |
| 20260507004236 | 9 | 180 | 0.0 | 0.0 | 0.00 | 0.00 | 0.56 | 96 | 1014.1 |
| 20260507003637 | 9 | 225 | 0.0 | 0.0 | 0.00 | 0.00 | 0.56 | 96 | 1014.0 |
| 20260507003037 | 9 | 180 | 0.0 | 0.0 | 0.00 | 0.00 | 0.56 | 96 | 1014.1 |
| 20260507002437 | 9 | 225 | 1.6 | 1.6 | 0.00 | 0.00 | 0.56 | 96 | 1014.1 |
| 20260507001837 | 8 | 225 | 1.6 | 1.6 | 0.00 | 0.00 | 0.56 | 96 | 1014.1 |
| 20260507001237 | 8 | 180 | 0.0 | 1.6 | 0.00 | 0.00 | 0.56 | 96 | 1014.2 |
| 20260507000636 | 8 | 180 | 0.0 | 1.6 | 0.00 | 0.00 | 0.56 | 96 | 1014.0 |
| 20260507000037 | 9 | 180 | 0.0 | 0.0 | 0.00 | 0.00 | 0.56 | 96 | 1014.0 |
| 20260506235437 | 8 | 180 | 0.0 | 0.0 | 0.00 | 0.00 | 0.56 | 96 | 1014.1 |
| 20260506234837 | 9 | 45 | 0.0 | 0.0 | 0.00 | 0.00 | 0.56 | 96 | 1014.2 |
| 20260506233637 | 9 | 225 | 0.0 | 0.0 | 0.00 | 0.00 | 0.56 | 96 | 1014.2 |
| 20260506233037 | 9 | 90 | 0.0 | 0.0 | 0.00 | 0.00 | 0.56 | 96 | 1014.1 |
| 20260506232437 | 9 | 180 | 0.0 | 0.0 | 0.00 | 0.00 | 0.56 | 95 | 1014.0 |
| 20260506231837 | 9 | 225 | 0.0 | 0.0 | 0.00 | 0.00 | 0.56 | 95 | 1014.1 |
| 20260506231237 | 10 | 225 | 1.6 | 1.6 | 0.00 | 0.00 | 0.56 | 96 | 1014.1 |
| 20260506230636 | 10 | 225 | 0.0 | 0.0 | 0.00 | 0.00 | 0.56 | 95 | 1014.0 |
| 20260506230037 | 10 | 135 | 0.0 | 0.0 | 0.00 | 0.00 | 0.56 | 95 | 1014.0 |
| 20260506225437 | 10 | 0 | 0.0 | 0.0 | 0.00 | 0.00 | 0.56 | 95 | 1014.1 |
| 20260506224837 | 10 | 90 | 0.0 | 0.0 | 0.00 | 0.00 | 0.56 | 95 | 1014.0 |
| 20260506224237 | 9 | 135 | 0.0 | 0.0 | 0.00 | 0.00 | 0.56 | 95 | 1014.0 |
| 20260506223637 | 10 | 90 | 0.0 | 0.0 | 0.00 | 0.00 | 0.56 | 95 | 1013.9 |
| 20260506223037 | 10 | 90 | 0.0 | 0.0 | 0.00 | 0.00 | 0.56 | 94 | 1014.0 |
| 20260506222437 | 9 | 180 | 0.0 | 0.0 | 0.00 | 0.00 | 0.56 | 94 | 1013.9 |
| 20260506221837 | 10 | 225 | 0.0 | 0.0 | 0.00 | 0.00 | 0.56 | 94 | 1013.9 |
| 20260506221236 | 10 | 90 | 0.0 | 0.0 | 0.00 | 0.00 | 0.56 | 94 | 1013.9 |
| 20260506220636 | 10 | 180 | 0.0 | 0.0 | 0.00 | 0.00 | 0.56 | 93 | 1013.9 |
| 20260506220037 | 10 | 180 | 0.0 | 0.0 | 0.00 | 0.00 | 0.56 | 94 | 1013.7 |
| 20260506215437 | 10 | 180 | 0.0 | 0.0 | 0.00 | 0.00 | 0.56 | 93 | 1013.7 |